TITAN 3C TRANSTAGE DEB, 26781

Orbit data source: Space-Track

TITAN 3C TRANSTAGE DEB, 26781 is space debris in HEO originally from a launch on Tue, 21 Dec 1965 UTC launched from the Air Force Eastern Test Range (AFETR). Debris objects in space refer to the collection of defunct objects orbiting the Earth. Examples of debris include non-operational satellites, rocket bodies, and fragments generated from explosions, collisions, or faulty payload assembly.

Loading next visibility...
Identifier
26781, 1965-108AZ
Orbit
HEO
Country
Flag of USUS
Related business
Manufacturer
Unknown
Mission
Spacecraft
Bus & Motor
Unknown
Mass
Unknown
Launch date (UTC)
1965-12-21 (60 years ago)
Launch vehicle
Unknown
Launch site
Air Force Eastern Test Range (AFETR)
Object type
Payload
Rocket body
Debris
Shape & HBR
Unknown shape, 0.2 m
Radar Cross Section
Medium (>0.1 m² and <1 m²)

Expand to show TLE details & history
Last TLE update: 2 months ago

TLE from 2 months ago
0 TITAN 3C TRANSTAGE DEB
1 26781U 65108AZ  25232.06418963 -.00000319  00000-0 -10833-2 0  9997
2 26781  27.2297 111.9840 6256285 249.3980  35.8956  3.43621713 72508
Epoch: 2025-08-20T01:32Z
TLE epoch observation values (Epoch: 2025-08-20T01:32:25.984Z)
Latitude
0.00011°
Longitude
120.29086°
Altitude
8,120.607 km
Speed
5.788 km/s
True Right ascension
07h 28m 11s
True Declination
0° 00' 00"
Sunlit
Object was in daylight at epoch
Visualization orbit readout
Latitude
Unknown
Longitude
Unknown
Altitude
Unknown
Speed
Unknown
Apparent Right ascension
Unknown
Apparent Declination
Unknown
Sunlit
N/A
Visualization observer readout
Local Sidereal Time
06:30:42
Azimuth
Unknown
Elevation
Unknown
Doppler factor
Unknown
Orbital elements
Apogee altitude
23,783.159 km
Perigee altitude
567.81 km
Semi-major axis
18,553.621 km
Eccentricity
0.62563
Inclination
27.2297°
RAAN
111.984°
Arg. of periapsis
249.398°
True anomaly
110.61579°
Mean anomaly
35.8956°
Eccentric anomaly
69.46341°
Mean motion
0.85882 °/min
Orbital period
419.18 mins
BSTAR
-0.0010833
Loading maneuver chart data...
Computing Atmospheric mass density...

Documentation

Showing up to 5 results
|